Theta_e
313 314 312 312 311 313 312 311 311 311 310 309 308 308 308 309 312 309 310 310 311 311 310 310 310 309 311 309 310 311 312 312 313 313 314 314 314 315 316 316 317 321
313 314 314 313 312 312 312 311 310 310 309 309 309 309 309 309 311 310 309 309 311 310 310 309 309 309 309 309 309 309 309 310 309 313 312 312 313 313 314 314 315 317
312 312 312 311 310 309 311 311 310 309 309 309 309 308 310 310 309 309 309 309 308 308 308 308 307 308 308 307 307 307 307 307 307 309 310 310 311 311 312 313 314 315
312 311 311 311 310 309 310 310 309 309 308 308 307 308 309 311 309 309 308 313 308 307 307 307 307 306 306 306 306 306 305 306 307 307 307 308 309 310 310 311 312 313
311 311 310 310 310 310 310 309 309 308 307 308 307 308 308 307 307 307 306 307 306 305 305 305 305 305 305 305 305 304 304 306 305 305 305 306 307 309 310 311 311 312
311 311 310 310 309 310 309 309 309 309 308 307 307 308 306 307 306 306 306 304 305 304 304 304 304 304 304 303 303 303 303 305 304 304 304 304 305 306 307 308 309 310
310 310 309 309 309 309 309 308 308 309 308 307 307 306 305 305 305 305 305 304 303 304 303 302 302 302 302 302 302 302 302 302 302 303 303 304 305 305 306 306 307 308
310 309 309 309 308 308 308 308 307 307 306 306 305 305 305 305 305 304 304 304 302 302 301 301 302 301 301 301 301 301 300 303 303 302 302 303 303 303 304 306 306 306
310 309 309 308 308 307 307 308 307 306 307 305 304 304 305 305 304 304 304 303 302 302 301 300 301 300 300 301 301 300 300 300 302 301 302 302 302 303 304 305 304 304
309 309 308 308 307 307 307 307 307 306 307 306 306 305 305 305 304 303 303 302 302 301 300 300 300 300 300 300 301 300 300 301 301 302 302 302 302 302 303 304 304 304
309 309 308 307 307 307 307 307 306 306 306 305 305 304 304 303 303 304 302 302 301 301 300 299 300 300 300 300 300 301 302 302 303 303 303 303 303 303 304 304 304 304
308 308 307 307 307 306 306 306 306 306 305 305 305 303 302 302 302 301 302 301 300 300 300 300 300 300 300 300 301 302 303 304 304 303 304 303 303 303 303 304 304 304
308 308 307 307 307 306 307 306 306 305 304 303 303 302 301 301 300 300 300 300 300 300 300 300 300 301 301 301 302 302 302 302 302 303 303 303 303 303 303 303 303 304
308 308 307 307 307 306 306 306 305 304 303 302 303 300 300 300 299 299 298 300 299 300 300 300 300 299 299 300 301 301 301 301 301 301 301 302 303 303 303 303 303 303
308 307 307 307 307 306 305 304 303 302 302 301 300 300 301 300 299 299 298 298 298 299 298 299 300 301 302 302 302 302 303 302 302 302 302 302 302 302 303 303 303 303
308 307 307 306 305 304 303 302 302 301 300 299 299 299 298 299 298 298 298 298 297 297 297 298 299 299 301 299 298 300 300 300 301 301 301 301 301 301 301 301 302 302
307 306 305 305 303 302 301 301 301 301 299 299 299 298 298 297 298 297 296 296 296 296 295 297 298 299 297 294 294 295 297 298 298 298 298 298 299 299 299 300 300 301
305 304 303 303 302 301 301 301 300 299 298 297 297 297 297 297 297 296 295 295 296 295 294 295 296 298 295 295 294 294 295 297 296 296 296 296 296 297 297 298 298 299
304 303 302 302 301 301 301 300 299 297 296 296 296 296 296 296 295 295 295 294 295 294 293 295 295 296 294 294 294 294 294 295 295 295 295 295 295 295 296 296 297 297
303 302 301 300 300 300 299 298 296 295 294 295 296 296 295 294 294 294 293 293 293 293 294 294 295 296 294 294 294 293 293 293 296 296 296 296 295 295 295 295 295 296
302 301 299 299 299 298 297 295 295 293 294 294 295 293 292 293 293 292 292 294 292 292 292 294 296 295 293 293 293 292 292 292 294 295 295 295 295 295 295 295 295 296
301 299 299 298 297 296 295 294 294 294 294 294 293 291 292 291 291 292 292 291 292 291 292 292 293 293 292 292 292 291 292 293 294 293 293 293 293 293 294 295 295 296
300 299 298 297 296 295 294 294 293 294 293 292 290 290 290 290 290 291 291 290 290 291 291 292 292 293 292 292 292 292 292 293 292 292 291 291 291 292 293 293 294 294
300 299 297 297 295 295 294 293 293 292 292 292 291 289 289 290 291 290 290 290 290 291 292 292 292 293 293 292 292 291 292 291 291 290 290 290 291 292 292 292 293 296
299 298 296 295 294 293 293 292 292 292 291 291 290 289 289 289 291 289 289 289 290 291 296 294 292 293 293 291 291 291 292 291 291 290 289 289 290 290 291 291 292 294
298 297 295 295 294 293 292 293 292 291 290 290 289 289 288 288 289 288 288 289 290 291 292 292 292 292 293 292 292 291 292 292 291 289 289 289 290 290 290 291 292 292
Wind_Speed
6 5 7 6 5 6 6 6 5 6 5 4 4 3 3 2 2 2 2 1 0 0 1 2 2 3 3 3 3 3 3 5 6 6 6 6 6 7 7 6 6 5
7 6 5 5 5 4 5 6 5 6 5 4 4 3 2 2 2 3 3 2 1 1 2 2 3 2 2 2 3 4 5 5 6 5 7 7 7 7 7 7 7 7
6 6 6 6 6 5 6 5 5 4 4 4 3 3 2 2 1 1 2 2 1 2 2 3 3 3 3 3 3 3 4 4 4 4 5 6 6 7 7 7 7 8
7 8 7 6 6 6 5 6 4 4 3 3 3 3 2 2 1 1 1 1 2 3 4 4 4 4 4 4 3 3 3 3 3 3 4 5 6 7 8 8 8 8
9 7 6 6 5 5 5 6 5 4 4 4 3 3 3 2 1 1 2 3 3 3 2 2 2 3 3 3 3 3 3 4 3 3 4 5 5 6 7 7 8 10
7 7 6 6 5 6 6 6 5 5 4 4 4 3 3 2 2 3 3 4 3 3 2 2 2 2 2 3 3 3 3 3 3 3 4 5 6 5 7 8 9 10
8 7 7 6 5 5 6 5 4 4 5 4 3 4 3 3 3 4 4 4 4 4 4 4 4 4 3 3 2 3 3 3 3 3 4 5 4 6 5 7 9 10
8 7 7 6 6 5 6 5 4 4 4 4 4 4 3 4 4 4 4 4 4 4 4 4 4 4 4 3 3 3 3 3 4 4 5 5 5 7 8 7 7 9
8 7 7 7 7 6 5 5 4 4 4 4 4 4 3 4 4 4 4 4 4 4 3 3 3 3 2 2 3 3 4 4 4 4 5 6 6 8 9 9 9 9
9 7 8 7 7 6 6 5 4 4 4 4 4 4 4 4 4 4 3 4 4 3 3 3 3 3 3 3 4 4 4 5 4 5 6 7 8 9 9 9 9 9
8 8 8 7 7 6 6 5 5 5 4 4 4 4 4 3 2 1 1 1 3 3 4 3 3 3 3 4 4 4 4 5 5 6 6 7 8 9 9 10 10 11
9 8 8 8 7 6 6 6 5 5 4 4 4 4 3 2 1 1 1 3 2 2 2 3 3 3 4 4 4 3 4 6 7 8 8 8 8 9 9 8 8 9
9 9 8 7 7 6 6 5 5 4 4 4 3 3 2 1 1 1 2 1 2 2 3 4 4 4 4 4 4 4 5 6 6 7 7 7 8 9 10 10 9 9
9 8 8 7 7 6 5 5 5 4 4 4 3 3 1 1 1 2 3 2 2 2 2 2 3 4 4 5 5 6 6 7 8 8 9 9 9 9 9 10 10 11
7 7 6 7 7 6 5 5 5 5 4 4 3 2 2 2 2 2 2 2 1 1 2 2 3 4 3 4 6 7 7 8 8 8 9 10 10 9 8 8 8 8
8 7 7 6 6 6 6 5 5 4 4 4 4 3 3 4 4 4 2 1 0 1 1 2 2 3 5 10 9 6 7 7 8 8 9 9 10 11 11 11 12 11
8 7 7 7 6 6 5 5 5 5 4 4 4 4 4 4 4 3 1 1 1 2 2 2 3 3 8 8 9 10 7 6 7 8 8 9 10 10 11 11 11 11
8 8 7 7 6 6 5 6 5 5 4 4 3 2 2 2 2 2 1 1 1 1 2 3 3 6 9 10 11 10 8 8 8 8 8 9 9 11 11 11 12 11
8 8 7 7 6 6 6 6 5 4 4 3 2 3 2 2 1 1 1 1 1 3 4 4 4 7 10 12 11 12 13 12 9 9 9 9 9 10 11 11 11 12
8 8 7 6 6 6 6 5 5 5 4 3 2 1 1 2 0 0 1 1 2 4 4 4 5 7 12 12 13 14 15 13 9 10 10 10 11 11 10 11 11 12
7 7 6 5 5 5 5 4 4 3 3 3 3 2 2 0 0 1 2 2 3 4 4 5 4 9 11 11 11 12 12 10 7 7 8 10 10 10 11 12 12 12
8 6 6 5 5 4 4 4 3 4 4 0 2 3 2 2 2 1 2 3 4 4 5 6 5 9 10 10 10 10 11 7 7 8 9 9 10 10 11 12 12 13
8 7 5 5 4 4 4 4 3 1 3 3 4 3 3 3 1 1 2 3 4 4 5 5 5 7 10 12 13 14 10 7 7 8 8 10 10 10 11 12 13 13
7 6 5 4 4 3 2 3 3 3 2 3 5 4 3 1 1 1 2 3 4 5 5 7 8 9 12 13 13 13 10 8 7 8 9 10 11 11 11 12 13 21
7 6 5 4 4 4 4 3 3 3 3 5 5 3 2 1 0 1 2 3 4 5 9 10 9 10 12 12 12 12 11 8 8 8 11 11 12 13 12 12 13 14
6 6 5 5 5 5 4 3 2 3 5 4 4 3 2 1 1 3 4 4 4 5 6 7 9 9 10 14 13 13 12 10 9 10 12 13 13 13 14 12 12 13
Wind_Direction
170 166 172 173 182 169 168 167 183 183 186 176 158 187 163 202 166 146 157 130 125 47 350 326 317 313 311 321 320 325 319 320 317 317 312 309 302 303 302 304 295 270
176 170 169 167 178 164 174 172 176 165 179 166 166 150 152 126 151 146 149 166 161 219 244 249 252 246 260 294 304 303 297 297 301 309 311 309 303 305 304 303 300 297
169 172 171 177 183 179 177 174 159 152 152 174 154 148 144 130 144 148 163 164 192 227 244 242 239 234 226 230 239 265 276 281 283 296 304 308 313 309 306 306 303 299
179 176 178 181 179 180 171 156 149 143 139 131 157 171 162 195 154 144 148 193 214 246 259 268 262 261 256 248 234 234 241 258 270 290 299 302 303 305 301 302 295 295
178 178 177 178 180 170 164 157 158 158 157 186 192 177 154 144 160 220 242 248 230 224 235 256 263 254 243 236 226 242 247 250 258 273 282 284 291 299 300 297 291 286
179 175 175 174 172 161 165 160 166 163 179 177 189 170 164 172 185 209 221 233 233 225 227 244 263 275 273 275 279 271 266 273 270 270 272 275 283 286 294 297 299 295
179 176 178 170 170 159 161 170 164 172 178 187 171 184 176 198 216 225 232 225 223 225 231 237 241 253 252 245 250 262 270 267 275 273 275 276 274 280 280 289 293 294
177 176 171 170 169 166 167 167 173 174 181 162 173 205 176 209 221 226 217 222 233 242 242 241 238 235 242 230 240 259 276 274 284 282 280 280 286 289 288 285 288 295
170 171 170 172 167 175 170 174 175 182 175 176 191 211 216 211 228 240 246 235 230 235 232 238 238 245 249 237 245 249 259 265 259 270 277 285 287 286 288 289 285 281
170 169 169 169 173 172 173 177 178 184 186 184 201 201 217 238 229 232 233 240 245 256 254 253 254 249 252 236 240 245 252 258 261 261 266 271 275 279 281 284 283 287
170 170 170 170 171 168 174 179 184 190 187 191 194 210 223 231 269 279 278 272 262 261 268 267 260 259 258 263 260 255 257 263 267 267 264 265 267 270 274 275 280 283
169 169 170 169 167 169 174 179 182 183 189 197 188 204 228 239 240 305 303 297 307 311 318 312 306 298 287 278 272 271 276 279 277 274 272 270 270 274 278 278 281 283
170 170 165 167 168 172 174 175 178 181 178 193 198 195 192 217 253 292 297 284 281 295 301 297 297 293 292 285 284 283 283 286 287 287 286 282 276 272 270 270 270 270
169 162 160 165 169 170 173 176 177 180 186 198 177 166 187 211 251 263 267 280 287 307 308 316 313 314 307 300 289 285 282 277 278 278 279 278 276 271 270 269 267 264
158 157 157 161 165 166 169 175 173 181 185 176 165 176 185 213 222 216 242 273 308 332 335 338 335 319 312 307 307 302 297 293 290 286 283 282 280 278 276 277 279 276
155 156 161 158 157 164 167 170 178 190 186 183 194 200 221 238 238 246 244 183 125 307 312 318 307 300 303 307 309 308 309 307 304 301 299 296 292 289 282 277 274 276
154 160 157 159 161 155 168 173 192 189 187 196 206 217 223 223 221 220 178 197 233 253 275 279 276 274 282 286 297 306 307 299 297 295 295 292 291 288 287 284 279 274
152 150 149 153 152 167 177 190 188 192 205 202 196 212 240 233 212 184 203 249 254 260 265 263 256 259 268 272 276 279 280 287 290 291 288 287 286 285 285 286 285 283
143 146 149 157 171 179 186 188 189 186 174 169 213 228 241 256 171 126 234 265 283 285 277 270 267 262 263 264 263 262 266 269 273 271 274 274 274 275 277 279 281 281
140 144 158 169 176 178 181 185 179 183 189 190 206 249 180 140 176 298 307 293 275 271 274 274 274 274 271 269 265 264 266 270 276 278 279 277 276 275 274 273 271 273
140 143 154 161 165 172 175 182 173 170 170 199 205 189 132 158 173 351 325 314 304 298 295 290 281 283 283 281 280 280 281 282 275 275 276 278 277 275 273 271 271 268
135 140 146 159 170 170 171 175 175 185 207 212 89 98 82 76 26 47 331 317 304 306 301 293 289 290 295 300 297 289 279 271 268 270 275 276 277 276 274 273 272 269
129 138 152 168 171 163 171 187 194 96 103 122 103 106 98 79 59 334 310 306 302 301 300 293 293 295 299 298 295 292 289 282 283 284 282 282 278 279 276 274 271 268
135 139 155 176 157 157 139 112 129 128 146 140 115 113 87 71 306 330 303 295 299 300 294 299 295 292 293 294 293 291 287 288 287 287 285 284 284 278 278 276 272 269
137 141 131 122 116 132 133 123 124 136 130 93 109 116 139 180 180 269 266 271 268 276 285 288 287 285 281 280 281 285 288 289 290 291 291 288 286 284 279 278 277 272
130 125 123 109 102 94 90 115 133 88 100 125 138 144 162 191 214 235 249 261 266 271 275 274 281 282 280 277 274 275 279 287 290 292 289 288 285 284 286 278 276 275